Tillbaka till svenska Fidonet
English   Information   Debug  
FILM   0/18
FNEWS_PUBLISH   4926
FN_SYSOP   42201
FN_SYSOP_OLD1   71952
FTP_FIDO   0/2
FTSC_PUBLIC   0/13972
FUNNY   0/4886
GENEALOGY.EUR   0/71
GET_INFO   105
GOLDED   0/408
HAM   4454/16660
HOLYSMOKE   0/6791
HOT_SITES   0/1
HTMLEDIT   0/71
HUB203   466
HUB_100   264
HUB_400   39
HUMOR   0/29
IC   0/2851
INTERNET   0/424
INTERUSER   0/3
IP_CONNECT   719
JAMNNTPD   0/233
JAMTLAND   0/47
KATTY_KORNER   0/41
LAN   0/16
LINUX-USER   0/19
LINUXHELP   0/1155
LINUX   0/22300
LINUX_BBS   0/957
mail   18.68
mail_fore_ok   249
MENSA   0/341
MODERATOR   0/102
MONTE   0/992
MOSCOW_OKLAHOMA   0/1245
MUFFIN   0/783
MUSIC   0/321
N203_STAT   938
N203_SYSCHAT   313
NET203   321
NET204   69
NET_DEV   0/10
NORD.ADMIN   0/101
NORD.CHAT   0/2572
NORD.FIDONET   189
NORD.HARDWARE   0/28
NORD.KULTUR   0/114
NORD.PROG   0/32
NORD.SOFTWARE   0/88
NORD.TEKNIK   0/58
NORD   0/453
OCCULT_CHAT   0/93
OS2BBS   0/787
OS2DOSBBS   0/580
OS2HW   0/42
OS2INET   0/37
OS2LAN   0/134
OS2PROG   0/36
OS2REXX   0/113
OS2USER-L   207
OS2   0/4830
OSDEBATE   2709/18996
PASCAL   0/490
PERL   0/457
PHP   0/45
POINTS   0/405
POLITICS   0/29554
POL_INC   0/14731
PSION   103
R20_ADMIN   1133
R20_AMATORRADIO   0/2
R20_BEST_OF_FIDONET   16
R20_CHAT   0/896
R20_DEPP   0/3
R20_DEV   400
R20_ECHO2   1830
R20_ECHOPRES   0/35
R20_ESTAT   0/719
R20_FIDONETPROG...
...RAM.MYPOINT
  0/2
R20_FIDONETPROGRAM   0/22
R20_FIDONET   0/248
R20_FILEFIND   0/24
R20_FILEFOUND   0/22
R20_HIFI   0/3
R20_INFO2   3723
R20_INTERNET   0/12940
R20_INTRESSE   0/60
R20_INTR_KOM   0/99
R20_KANDIDAT.CHAT   42
R20_KANDIDAT   28
R20_KOM_DEV   112
R20_KONTROLL   0/13360
R20_KORSET   0/18
R20_LOKALTRAFIK   0/24
R20_MODERATOR   0/1852
R20_NC   76
R20_NET200   245
R20_NETWORK.OTH...
...ERNETS
  0/13
R20_OPERATIVSYS...
...TEM.LINUX
  0/44
R20_PROGRAMVAROR   0/1
R20_REC2NEC   534
R20_SFOSM   0/341
R20_SF   0/108
R20_SPRAK.ENGLISH   0/1
R20_SQUISH   107
R20_TEST   2
R20_WORST_OF_FIDONET   20
RAR   0/9
RA_MULTI   106
RA_UTIL   0/162
REGCON.EUR   0/2068
REGCON   0/13
SCIENCE   0/1206
SF   0/239
SHAREWARE_SUPPORT   0/5146
SHAREWRE   0/14
SIMPSONS   0/169
STATS_OLD1   0/2539.065
STATS_OLD2   0/2530
STATS_OLD3   0/2395.095
STATS_OLD4   0/1692.25
SURVIVOR   0/495
SYSOPS_CORNER   0/3
SYSOP   0/84
TAGLINES   0/112
TEAMOS2   0/4530
TECH   0/2617
TEST.444   0/105
TRAPDOOR   0/19
TREK   0/755
TUB   0/290
UFO   0/40
UNIX   0/1316
USA_EURLINK   0/102
USR_MODEMS   0/1
VATICAN   0/2740
VIETNAM_VETS   0/14
VIRUS   0/378
VIRUS_INFO   0/201
VISUAL_BASIC   0/473
WHITEHOUSE   0/5187
WIN2000   0/101
WIN32   0/30
WIN95   0/4291
WIN95_OLD1   0/70272
WINDOWS   0/1517
WWB_SYSOP   0/419
WWB_TECH   0/810
ZCC-PUBLIC   0/1
ZEC   4

 
4DOS   0/134
ABORTION   0/7
ALASKA_CHAT   0/506
ALLFIX_FILE   0/1313
ALLFIX_FILE_OLD1   0/7997
ALT_DOS   0/152
AMATEUR_RADIO   0/1039
AMIGASALE   0/14
AMIGA   0/331
AMIGA_INT   0/1
AMIGA_PROG   0/20
AMIGA_SYSOP   0/26
ANIME   0/15
ARGUS   0/924
ASCII_ART   0/340
ASIAN_LINK   0/651
ASTRONOMY   0/417
AUDIO   0/92
AUTOMOBILE_RACING   0/105
BABYLON5   0/17862
BAG   135
BATPOWER   0/361
BBBS.ENGLISH   0/382
BBSLAW   0/109
BBS_ADS   0/5290
BBS_INTERNET   0/507
BIBLE   0/3563
BINKD   0/1119
BINKLEY   0/215
BLUEWAVE   0/2173
CABLE_MODEMS   0/25
CBM   0/46
CDRECORD   0/66
CDROM   0/20
CLASSIC_COMPUTER   0/378
COMICS   0/15
CONSPRCY   0/899
COOKING   41444
COOKING_OLD1   0/24719
COOKING_OLD2   0/40862
COOKING_OLD3   0/37489
COOKING_OLD4   0/35496
COOKING_OLD5   9370
C_ECHO   0/189
C_PLUSPLUS   0/31
DIRTY_DOZEN   0/201
DOORGAMES   0/2285
DOS_INTERNET   0/196
duplikat   6102
ECHOLIST   0/18295
EC_SUPPORT   0/318
ELECTRONICS   0/359
ELEKTRONIK.GER   1534
ENET.LINGUISTIC   0/13
ENET.POLITICS   0/4
ENET.SOFT   0/11701
ENET.SYSOP   34296
ENET.TALKS   0/32
ENGLISH_TUTOR   0/2000
EVOLUTION   0/1335
FDECHO   0/217
FDN_ANNOUNCE   0/7068
FIDONEWS   25062
FIDONEWS_OLD1   0/49742
FIDONEWS_OLD2   0/35949
FIDONEWS_OLD3   0/30874
FIDONEWS_OLD4   0/37224
FIDO_SYSOP   12922
FIDO_UTIL   0/180
FILEFIND   0/209
FILEGATE   0/212
Möte HAM, 16660 texter
 lista första sista föregående nästa
Text 3320, 878 rader
Skriven 2009-11-13 00:30:29 av Amsat List (1:323/120.0)
Ärende: [keps]  orb09316.amsa
=============================
[keps]  orb09316.amsa

Return-Path: <keps-bounces@amsat.org>
X-Rcpt: craig.healy@chowda.com
X-UIDL: 1258085967.14057

SB KEPS @ AMSAT  $ORB09316.O
Orbital Elements  09316.OSCAR

HR AMSAT ORBITAL ELEMENTS FOR OSCAR SATELLITES
FROM WA5QGD FORT WORTH,TX November 12, 2009
Send Subscribe/unsubscribe to KEPS at http://www.amsat.org/mailman/listinfo/kep
BID: ORB09316.O
TO ALL RADIO AMATEURS BT

Satellite: AO-07
Catalog number: 07530
Epoch time:      09316.60839158
Element set:     628
Inclination:      101.4168 deg
RA of node:       335.7830 deg
Eccentricity:    0.0012000
Arg of perigee:   339.0225 deg
Mean anomaly:     021.0348 deg
Mean motion:   12.53577024 rev/day
Decay rate:       -2.7e-07 rev/day^2
Epoch rev:           60131
Checksum:              260

Satellite: FO-29
Catalog number: 24278
Epoch time:      09316.20263448
Element set:     173
Inclination:      098.5230 deg
RA of node:       170.1732 deg
Eccentricity:    0.0350303
Arg of perigee:   326.8138 deg
Mean anomaly:     031.1457 deg
Mean motion:   13.52946326 rev/day
Decay rate:      -1.30e-06 rev/day^2
Epoch rev:           65376
Checksum:              290

Satellite: SO-33
Catalog number: 25509
Epoch time:      09315.95595759
Element set:    0584
Inclination:      031.4338 deg
RA of node:       296.9242 deg
Eccentricity:    0.0354495
Arg of perigee:   190.5673 deg
Mean anomaly:     168.7351 deg
Mean motion:   14.28272410 rev/day
Decay rate:       2.65e-06 rev/day^2
Epoch rev:           57697
Checksum:              352

Satellite: RS-22
Catalog number: 27939
Epoch time:      09316.23670021
Element set:     936
Inclination:      097.9191 deg
RA of node:       185.5224 deg
Eccentricity:    0.0014216
Arg of perigee:   028.8807 deg
Mean anomaly:     331.3190 deg
Mean motion:   14.63355668 rev/day
Decay rate:       1.24e-06 rev/day^2
Epoch rev:           32722
Checksum:              302

Satellite: VO-52
Catalog number: 28650
Epoch time:      09315.68147646
Element set:     362
Inclination:      097.7240 deg
RA of node:       012.2390 deg
Eccentricity:    0.0025997
Arg of perigee:   267.8094 deg
Mean anomaly:     092.0133 deg
Mean motion:   14.81641882 rev/day
Decay rate:       3.77e-06 rev/day^2
Epoch rev:           24448
Checksum:              323

Satellite: SO-67
Catalog number: 35870
Epoch time:      09316.86512067
Element set:     167
Inclination:      097.3646 deg
RA of node:       005.8651 deg
Eccentricity:    0.0013356
Arg of perigee:   096.1143 deg
Mean anomaly:     016.5408 deg
Mean motion:   15.22847249 rev/day
Decay rate:       4.53e-06 rev/day^2
Epoch rev:             854
Checksum:              313

/EX
SB KEPS @ AMSAT  $ORB09316.D
Orbital Elements  09316.MICROS

HR AMSAT ORBITAL ELEMENTS FOR THE MICROSATS
FROM WA5QGD FORT WORTH,TX November 12, 2009
Send Subscribe/unsubscribe to KEPS at http://www.amsat.org/mailman/listinfo/kep
BID: ORB09316.D
TO ALL RADIO AMATEURS BT

Satellite: AO-16
Catalog number: 20439
Epoch time:      09316.42141400
Element set:     748
Inclination:      098.3013 deg
RA of node:       278.2384 deg
Eccentricity:    0.0011888
Arg of perigee:   089.5650 deg
Mean anomaly:     270.6906 deg
Mean motion:   14.31838724 rev/day
Decay rate:        1.1e-07 rev/day^2
Epoch rev:            3436
Checksum:              296

Satellite: LO-19
Catalog number: 20442
Epoch time:      09315.96511100
Element set:     660
Inclination:      098.2630 deg
RA of node:       284.4865 deg
Eccentricity:    0.0012938
Arg of perigee:   088.4720 deg
Mean anomaly:     271.7978 deg
Mean motion:   14.32072944 rev/day
Decay rate:        6.7e-07 rev/day^2
Epoch rev:            3446
Checksum:              310

Satellite: AO-27
Catalog number: 22825
Epoch time:      09315.85780367
Element set:     384
Inclination:      098.4567 deg
RA of node:       264.7658 deg
Eccentricity:    0.0008251
Arg of perigee:   183.4973 deg
Mean anomaly:     176.6146 deg
Mean motion:   14.29278321 rev/day
Decay rate:        7.2e-07 rev/day^2
Epoch rev:           84100
Checksum:              336

Satellite: IO-26
Catalog number: 22826
Epoch time:      09315.96193351
Element set:     117
Inclination:      098.4501 deg
RA of node:       265.5543 deg
Eccentricity:    0.0008690
Arg of perigee:   179.4261 deg
Mean anomaly:     180.6933 deg
Mean motion:   14.29531344 rev/day
Decay rate:        1.5e-07 rev/day^2
Epoch rev:           84112
Checksum:              301

Satellite: GO-32
Catalog number: 25397
Epoch time:      09316.13745904
Element set:      37
Inclination:      098.3194 deg
RA of node:       330.5057 deg
Eccentricity:    0.0001485
Arg of perigee:   140.3035 deg
Mean anomaly:     219.8245 deg
Mean motion:   14.23166532 rev/day
Decay rate:        6.0e-07 rev/day^2
Epoch rev:           58917
Checksum:              295

Satellite: NO-44
Catalog number: 26931
Epoch time:      09316.04453761
Element set:     311
Inclination:      067.0531 deg
RA of node:       043.4174 deg
Eccentricity:    0.0007093
Arg of perigee:   269.7763 deg
Mean anomaly:     090.2526 deg
Mean motion:   14.29573216 rev/day
Decay rate:       1.32e-06 rev/day^2
Epoch rev:           42371
Checksum:              284

Satellite: SO-50
Catalog number: 27607
Epoch time:      09315.94067873
Element set:    0031
Inclination:      064.5585 deg
RA of node:       296.3432 deg
Eccentricity:    0.0049517
Arg of perigee:   166.9406 deg
Mean anomaly:     193.3012 deg
Mean motion:   14.71473821 rev/day
Decay rate:       1.21e-06 rev/day^2
Epoch rev:           37041
Checksum:              299

